Wind_Speed
74 73 67 59 61 61 62 64 65 62 60 57 59 58 53 51 47 45 44 45 44 40 38 37 36 35 35 36 35 37 39 36 37 39 36 35 32 35 31 32 37 32 31 32
79 73 65 64 67 65 64 63 60 58 55 53 51 53 54 51 46 43 41 42 41 39 33 31 30 32 33 33 39 36 34 37 39 32 35 33 30 35 30 32 35 32 39 35
79 72 69 69 69 66 66 64 60 58 55 52 54 56 52 47 44 41 41 39 37 33 30 29 32 32 30 34 34 33 36 34 34 32 31 32 31 26 27 33 32 31 32 33
68 69 73 73 70 68 66 63 60 60 55 55 51 55 48 39 40 43 40 38 33 31 29 32 29 24 32 32 32 33 35 34 32 29 26 24 22 23 29 31 28 30 32 28
54 64 69 68 65 69 62 62 62 61 58 55 52 52 30 36 35 32 30 30 27 29 31 27 23 29 26 28 31 30 31 25 25 21 23 19 22 27 27 27 26 26 27 25
49 45 53 60 59 64 63 64 58 60 60 62 49 50 22 30 29 28 30 31 29 25 20 22 27 23 25 29 31 27 23 21 20 19 20 22 26 25 26 25 25 25 23 22
37 40 45 49 54 56 62 64 62 60 62 52 49 50 25 15 28 28 30 28 20 19 23 20 19 24 27 30 28 24 17 15 18 19 21 25 24 23 24 23 23 21 21 24
16 27 34 44 52 50 58 60 62 64 58 48 50 47 34 14 24 25 23 18 19 21 16 16 21 24 21 22 18 14 12 15 16 19 22 22 20 21 22 20 18 18 22 19
8 13 25 33 43 50 52 56 52 53 55 52 51 44 40 24 24 21 18 18 18 15 18 19 19 15 11 11 14 12 13 15 18 20 19 17 18 17 15 16 17 21 17 13
16 14 18 27 37 46 50 51 51 54 55 55 51 47 38 34 18 20 17 17 14 17 17 17 14 9 8 9 12 12 15 16 17 16 14 14 12 14 15 18 19 14 10 9
20 22 23 23 30 36 43 50 54 52 54 55 52 50 40 32 28 28 20 20 17 18 15 15 10 8 10 10 10 13 15 14 12 13 11 11 13 14 17 13 9 8 6 9
12 13 19 23 31 33 38 48 54 57 56 55 54 51 46 33 33 26 22 17 19 14 12 11 5 8 8 9 10 13 12 10 10 10 11 13 14 14 10 10 7 4 6 9
19 21 16 19 29 39 41 48 55 58 61 60 58 53 28 37 35 31 23 23 18 9 9 4 5 5 7 9 10 12 10 8 8 10 13 15 13 11 7 9 5 4 6 6
15 21 17 17 23 35 45 48 55 61 60 57 56 52 37 40 36 33 28 24 14 7 4 7 5 7 7 8 11 11 7 6 7 10 11 8 6 6 9 9 6 6 6 3
17 16 17 14 20 27 38 50 56 63 60 56 54 43 47 39 39 36 35 28 16 7 7 6 4 5 8 9 9 7 5 5 7 9 10 10 11 11 10 8 6 5 5 4
25 17 17 13 15 24 32 47 55 62 63 59 55 47 51 45 42 38 33 28 19 14 12 9 5 7 8 9 6 5 6 5 7 10 11 12 7 6 6 5 5 4 4 5
17 18 19 16 18 19 26 38 51 60 63 60 55 53 50 48 44 34 31 31 21 15 14 10 8 8 9 8 6 5 5 5 5 10 10 5 4 3 0 3 4 5 5 8
17 17 19 13 16 17 14 27 48 57 62 63 59 58 52 50 42 38 36 28 24 18 16 13 9 10 9 7 6 5 4 3 5 8 5 4 2 3 2 5 5 7 6 9
8 17 13 7 12 8 14 19 43 54 60 63 55 63 54 51 49 37 31 30 27 23 18 18 11 11 8 7 5 4 3 1 4 5 4 4 2 2 4 5 4 6 8 9
3 9 9 11 5 4 19 15 33 43 51 57 56 64 54 51 48 38 36 36 32 28 24 14 12 9 8 6 5 5 3 1 3 2 4 5 5 1 2 3 3 6 9 11
3 6 5 2 7 11 16 19 25 41 46 48 48 63 58 53 50 46 50 32 29 26 22 16 14 9 9 6 7 7 4 2 4 4 5 5 6 5 0 5 5 4 9 14
5 2 4 2 9 11 6 13 34 38 45 47 46 65 59 52 50 44 38 20 30 25 22 17 15 12 11 7 8 8 6 5 4 7 6 6 6 8 6 4 3 4 8 15
8 7 10 6 7 9 10 19 36 37 52 44 53 61 61 51 44 36 26 38 37 35 27 20 14 15 14 10 8 8 7 7 5 7 5 5 7 11 8 5 3 6 10 14
10 16 14 5 5 15 28 32 34 40 45 42 53 58 60 51 45 41 32 28 40 33 26 19 14 15 17 12 9 8 7 9 6 6 6 6 8 9 8 9 8 7 12 13
12 12 7 8 13 14 27 28 45 50 30 41 55 57 56 50 44 45 32 29 34 34 29 21 14 13 17 13 9 8 7 8 7 5 8 9 10 9 13 14 13 12 13 16
9 7 5 7 15 23 34 36 45 48 25 40 53 58 54 47 40 44 45 36 31 34 28 22 17 13 14 16 12 8 7 7 7 6 7 9 12 12 14 18 16 15 17 17
Wind_Direction
242 241 242 244 245 243 244 246 248 248 251 250 254 254 255 258 253 250 251 251 255 259 256 251 252 258 262 264 266 265 265 272 284 285 292 293 286 274 267 271 276 279 282 278
238 240 239 237 237 238 240 243 245 248 249 252 250 249 247 249 253 257 255 254 255 257 255 247 252 252 257 261 262 266 280 283 283 294 292 287 270 268 274 272 276 278 280 292
233 235 234 235 234 234 236 238 241 244 246 250 251 247 247 247 252 255 257 256 251 249 246 244 247 255 264 265 268 271 274 283 289 286 282 273 265 268 272 274 277 280 291 293
230 229 230 231 233 233 232 235 236 240 241 246 253 250 246 248 251 253 255 255 248 245 247 245 249 255 259 265 271 277 276 283 285 277 281 273 269 271 270 275 281 288 288 299
221 224 224 227 230 233 233 233 233 236 239 242 244 254 238 236 241 246 257 248 241 240 242 253 249 251 260 272 278 276 274 270 267 273 275 272 270 272 277 280 287 289 295 299
217 221 223 222 223 225 227 230 231 234 235 236 238 249 235 233 237 240 237 240 240 239 241 244 244 258 265 269 266 257 254 260 261 267 266 269 276 275 282 287 285 292 295 300
230 224 221 220 222 221 223 226 227 229 233 232 233 240 241 229 226 225 229 233 235 237 244 251 260 253 259 261 255 256 261 262 258 258 268 275 274 283 283 283 288 288 298 302
222 212 224 216 218 218 221 224 225 229 231 229 232 232 232 208 204 220 223 221 227 232 249 249 250 262 266 258 254 255 257 257 267 269 271 274 280 281 282 286 289 293 296 293
221 185 208 209 217 214 213 220 221 226 227 224 226 226 225 206 221 236 225 216 222 239 238 247 259 261 271 260 246 250 252 266 266 268 275 279 279 285 289 292 291 294 292 288
267 239 227 217 213 215 214 215 216 218 219 221 221 223 217 212 225 214 202 199 203 221 245 255 253 262 263 254 244 244 259 263 270 276 282 285 289 292 296 297 295 291 287 298
259 254 238 231 224 218 216 212 216 216 216 220 220 219 218 207 216 231 227 206 227 231 244 247 243 258 253 250 258 258 257 267 275 287 293 297 297 298 302 293 286 281 294 313
261 269 251 238 229 218 220 211 213 212 213 215 218 214 217 218 215 195 191 213 230 222 229 230 234 257 252 255 254 254 263 278 286 292 299 296 297 303 300 297 287 292 312 317
268 258 259 233 222 219 220 214 213 210 210 210 215 212 203 203 191 196 193 196 206 211 208 223 237 258 263 259 258 267 278 285 297 303 300 298 298 297 278 301 293 301 309 308
261 255 259 227 217 224 222 215 211 212 208 209 211 214 190 193 191 200 193 184 187 203 205 238 248 280 281 268 258 268 273 293 299 307 313 313 303 289 283 294 279 269 280 282
258 262 247 234 224 232 222 220 211 207 204 206 207 201 189 189 191 192 186 183 174 189 232 251 246 286 291 272 264 264 279 281 303 310 312 308 307 297 292 282 261 255 253 231
246 252 234 248 259 238 233 220 211 206 202 201 203 183 176 180 184 190 189 184 174 171 206 211 258 282 287 271 265 260 274 290 301 322 321 318 318 319 304 266 251 227 228 191
229 239 238 250 242 231 232 225 213 205 203 198 200 172 176 177 187 186 194 183 169 169 204 210 246 276 276 270 235 265 260 272 321 329 327 321 342 351 338 144 154 178 204 180
214 230 240 204 205 232 229 223 215 206 203 201 200 177 174 182 180 180 181 178 174 173 201 212 254 268 264 235 236 255 243 274 330 339 12 15 39 45 172 160 169 173 181 180
239 245 237 231 217 294 211 206 215 205 203 202 193 182 178 184 184 184 187 181 175 178 204 214 239 250 230 219 245 220 226 255 338 347 26 4 355 67 114 130 160 172 189 181
264 177 172 188 325 64 188 200 207 206 206 200 184 179 178 183 184 187 193 185 184 184 195 202 222 234 205 221 223 196 195 109 26 4 51 20 24 44 172 135 140 181 191 179
126 119 158 284 6 159 185 205 197 207 202 192 185 184 182 187 188 192 192 179 183 189 185 176 207 202 191 209 202 175 158 92 45 57 54 45 51 23 130 169 142 151 172 178
38 153 127 134 90 19 331 275 199 198 202 190 180 188 187 188 194 195 206 210 176 181 179 188 199 187 184 182 182 163 136 101 64 63 57 46 39 33 68 114 172 188 177 178
64 87 118 103 146 354 176 215 191 188 191 186 181 189 187 187 192 197 178 170 168 182 183 193 189 184 181 173 162 145 127 108 80 71 65 59 61 54 55 52 76 134 158 158
62 101 80 55 86 62 136 173 185 171 182 187 186 191 194 194 196 200 191 185 176 177 180 190 184 187 185 175 153 130 129 115 90 91 96 87 90 74 55 56 77 133 152 160
63 104 72 51 17 47 104 169 172 172 188 182 190 192 192 192 188 194 190 174 184 178 181 184 182 184 189 185 165 138 129 123 110 93 108 108 108 96 78 68 87 106 123 138
60 87 106 46 39 84 156 168 178 188 150 171 191 192 193 194 204 195 179 173 181 182 181 184 184 176 188 196 190 166 143 135 126 109 115 118 116 118 96 81 87 100 116 130
Height
5658 5662 5679 5696 5700 5702 5704 5707 5710 5719 5724 5731 5736 5741 5750 5750 5751 5757 5761 5764 5767 5772 5774 5775 5777 5776 5776 5775 5775 5773 5770 5769 5766 5765 5764 5763 5763 5763 5761 5762 5761 5759 5755 5752
5637 5652 5671 5675 5674 5683 5690 5695 5703 5708 5714 5717 5723 5729 5732 5736 5743 5749 5753 5756 5759 5762 5765 5767 5768 5768 5768 5768 5766 5763 5761 5760 5758 5757 5755 5754 5755 5755 5755 5755 5754 5751 5746 5745
5619 5641 5647 5651 5655 5667 5674 5682 5693 5698 5701 5709 5712 5714 5722 5731 5734 5740 5744 5747 5750 5752 5755 5758 5759 5760 5760 5757 5757 5754 5753 5752 5751 5750 5748 5747 5747 5749 5749 5749 5747 5744 5742 5738
5604 5621 5628 5630 5644 5651 5660 5672 5683 5684 5692 5697 5703 5701 5712 5729 5730 5731 5736 5739 5742 5745 5748 5750 5751 5751 5750 5750 5749 5747 5745 5745 5744 5743 5741 5742 5744 5742 5743 5742 5740 5737 5735 5731
5595 5605 5607 5617 5633 5637 5655 5661 5667 5673 5681 5689 5696 5696 5716 5719 5722 5728 5731 5732 5735 5738 5739 5741 5743 5743 5743 5743 5741 5740 5740 5739 5739 5738 5738 5738 5738 5737 5735 5734 5732 5730 5727 5725
5583 5586 5591 5604 5611 5624 5640 5643 5656 5662 5670 5672 5694 5694 5703 5710 5719 5722 5723 5722 5725 5729 5732 5734 5734 5736 5736 5735 5734 5734 5733 5734 5734 5735 5734 5733 5733 5731 5730 5729 5726 5724 5722 5719
5571 5578 5586 5594 5601 5614 5624 5631 5643 5649 5652 5676 5687 5687 5696 5706 5709 5712 5713 5716 5721 5724 5726 5728 5729 5729 5729 5729 5728 5728 5729 5729 5730 5730 5730 5729 5727 5726 5725 5723 5722 5719 5716 5715
5572 5576 5581 5584 5593 5605 5614 5623 5632 5639 5653 5671 5677 5682 5689 5702 5704 5705 5709 5714 5717 5719 5722 5722 5723 5723 5723 5722 5722 5724 5724 5725 5725 5726 5725 5724 5723 5722 5720 5718 5716 5714 5713 5711
5570 5574 5577 5580 5585 5595 5603 5610 5626 5632 5646 5659 5665 5677 5686 5696 5700 5704 5707 5710 5713 5715 5716 5717 5718 5718 5718 5718 5719 5720 5721 5721 5721 5721 5720 5720 5719 5717 5716 5714 5712 5710 5709 5707
5568 5573 5572 5575 5580 5587 5596 5605 5612 5621 5634 5647 5660 5668 5676 5690 5696 5699 5703 5707 5709 5709 5711 5713 5713 5713 5713 5715 5715 5716 5717 5717 5717 5716 5716 5715 5714 5713 5712 5710 5707 5706 5705 5704
5564 5567 5571 5573 5577 5582 5587 5594 5601 5615 5628 5639 5653 5661 5674 5686 5688 5691 5699 5703 5705 5706 5707 5709 5709 5710 5710 5712 5712 5713 5713 5713 5712 5712 5711 5710 5710 5709 5707 5705 5704 5703 5702 5701
5559 5562 5565 5569 5572 5574 5576 5586 5592 5605 5623 5634 5644 5655 5667 5679 5681 5687 5695 5700 5701 5702 5703 5705 5705 5707 5708 5709 5709 5711 5710 5709 5709 5708 5708 5706 5705 5704 5702 5701 5700 5700 5698 5698
5558 5560 5561 5562 5564 5565 5568 5577 5587 5599 5609 5622 5634 5644 5661 5667 5673 5682 5689 5693 5698 5699 5700 5700 5703 5704 5705 5706 5707 5707 5707 5706 5705 5705 5705 5703 5701 5700 5699 5698 5697 5697 5696 5696
5554 5554 5556 5557 5557 5558 5563 5568 5579 5588 5603 5617 5629 5638 5658 5661 5669 5676 5683 5686 5691 5696 5696 5699 5701 5702 5703 5704 5705 5704 5704 5703 5703 5703 5701 5699 5698 5696 5695 5695 5695 5695 5695 5695
5549 5550 5550 5551 5552 5551 5555 5561 5569 5579 5596 5607 5622 5636 5648 5657 5665 5670 5677 5682 5685 5692 5695 5697 5699 5700 5701 5702 5702 5702 5701 5701 5701 5701 5699 5698 5696 5694 5693 5693 5692 5693 5693 5693
5545 5546 5546 5547 5546 5545 5547 5553 5561 5574 5586 5599 5612 5632 5642 5651 5659 5666 5673 5679 5682 5687 5693 5696 5698 5699 5699 5700 5699 5699 5699 5700 5700 5699 5697 5695 5693 5692 5691 5690 5690 5690 5691 5691
5540 5542 5542 5543 5541 5539 5541 5548 5558 5569 5580 5593 5606 5628 5634 5645 5655 5664 5671 5677 5680 5684 5691 5694 5696 5697 5697 5698 5698 5698 5699 5699 5698 5697 5695 5694 5692 5691 5690 5689 5689 5690 5690 5691
5537 5538 5537 5539 5538 5537 5542 5546 5554 5562 5574 5585 5597 5619 5628 5640 5651 5658 5665 5670 5674 5680 5688 5692 5694 5695 5695 5696 5697 5697 5698 5698 5697 5696 5695 5693 5692 5691 5690 5689 5689 5689 5690 5692
5535 5535 5536 5537 5537 5536 5539 5543 5549 5556 5571 5579 5596 5612 5625 5635 5645 5653 5661 5666 5670 5677 5684 5689 5692 5693 5694 5694 5696 5696 5696 5696 5696 5696 5695 5693 5692 5691 5690 5690 5689 5689 5690 5691
5534 5536 5536 5535 5536 5534 5539 5541 5546 5558 5566 5575 5595 5608 5619 5629 5639 5649 5657 5662 5665 5670 5679 5686 5689 5691 5692 5693 5694 5695 5695 5696 5696 5696 5695 5693 5692 5691 5690 5689 5688 5689 5689 5691
5535 5535 5536 5537 5537 5539 5541 5543 5548 5555 5568 5577 5590 5604 5614 5625 5636 5642 5645 5636 5661 5669 5677 5682 5687 5689 5691 5692 5694 5694 5694 5695 5695 5695 5694 5693 5692 5691 5689 5689 5689 5689 5689 5691
5537 5536 5537 5539 5539 5540 5538 5540 5544 5555 5563 5575 5591 5602 5612 5622 5632 5643 5648 5652 5662 5670 5677 5681 5684 5687 5690 5692 5693 5693 5693 5694 5695 5695 5695 5694 5693 5691 5689 5689 5690 5690 5689 5690
5539 5540 5540 5541 5541 5541 5539 5539 5544 5554 5563 5577 5589 5599 5610 5621 5631 5641 5649 5650 5659 5670 5674 5680 5683 5686 5689 5692 5693 5692 5693 5694 5695 5695 5696 5696 5695 5693 5692 5691 5690 5690 5689 5690
5541 5542 5543 5544 5544 5542 5539 5542 5547 5558 5572 5580 5589 5597 5609 5620 5630 5639 5646 5651 5657 5664 5670 5678 5682 5685 5688 5691 5692 5692 5693 5694 5696 5697 5698 5698 5697 5697 5695 5693 5691 5691 5692 5693
5546 5546 5546 5545 5544 5541 5537 5545 5556 5564 5570 5577 5586 5595 5606 5618 5629 5639 5646 5651 5658 5661 5670 5677 5681 5684 5687 5690 5691 5692 5694 5694 5696 5698 5699 5699 5699 5699 5698 5696 5694 5695 5695 5696
5550 5549 5549 5547 5545 5541 5546 5554 5560 5565 5568 5575 5586 5596 5607 5617 5626 5633 5642 5648 5655 5663 5668 5674 5679 5682 5686 5689 5691 5692 5694 5695 5697 5699 5701 5701 5701 5702 5702 5700 5698 5699 5699 5700